Time,TemperatureF,DewpointF,PressureIn,WindDirection,WindDirectionDegrees,WindSpeedMPH,WindSpeedGustMPH,Humidity,HourlyPrecipIn,Conditions,Clouds,dailyrainin,SolarRadiationWatts/m^2,SoftwareType,DateUTC
2013-08-11 00:24:00,47.0,45.0,-100.00,NNW,344,2.0,4.0,92,0.00,,,0.00,0.000000,,2013-08-11 08:24:00,
2013-08-11 00:34:00,47.0,45.0,-100.00,NNW,344,2.0,4.0,92,0.00,,,0.00,0.000000,,2013-08-11 08:34:00,
2013-08-11 00:45:00,47.0,45.0,-100.00,NNW,344,2.0,4.0,92,0.00,,,0.00,0.000000,,2013-08-11 08:45:00,
2013-08-11 01:24:00,48.0,45.0,-100.00,NW,319,2.0,4.0,88,0.00,,,0.00,0.000000,,2013-08-11 09:24:00,
2013-08-11 01:34:00,48.0,45.0,-100.00,NW,319,2.0,4.0,88,0.00,,,0.00,0.000000,,2013-08-11 09:34:00,
2013-08-11 01:43:00,48.0,45.0,-100.00,NW,319,2.0,4.0,88,0.00,,,0.00,0.000000,,2013-08-11 09:43:00,
2013-08-11 01:53:00,48.0,45.0,-100.00,NW,319,2.0,4.0,88,0.00,,,0.00,0.000000,,2013-08-11 09:53:00,
2013-08-11 02:33:00,49.0,46.0,-100.00,NW,320,3.0,5.0,88,0.00,,,0.00,0.000000,,2013-08-11 10:33:00,
2013-08-11 02:43:00,49.0,46.0,-100.00,NW,320,3.0,5.0,88,0.00,,,0.00,0.000000,,2013-08-11 10:43:00,
2013-08-11 02:53:00,49.0,46.0,-100.00,NW,320,3.0,5.0,88,0.00,,,0.00,0.000000,,2013-08-11 10:53:00,
2013-08-11 02:54:00,49.0,46.0,-100.00,NW,323,0.0,4.0,88,0.00,,,0.00,0.000000,,2013-08-11 10:54:00,
2013-08-11 03:22:00,49.0,46.0,-100.00,NW,323,0.0,4.0,88,0.00,,,0.00,0.000000,,2013-08-11 11:22:00,
2013-08-11 03:34:00,49.0,46.0,-100.00,NW,323,0.0,4.0,88,0.00,,,0.00,0.000000,,2013-08-11 11:34:00,
2013-08-11 04:13:00,48.0,45.0,-100.00,SSE,149,1.0,3.0,91,0.00,,,-99.99,0.000000,,2013-08-11 12:13:00,
2013-08-11 04:25:00,48.0,45.0,-100.00,SSE,149,1.0,3.0,91,0.00,,,-99.99,0.000000,,2013-08-11 12:25:00,
2013-08-11 04:33:00,48.0,45.0,-100.00,SSE,149,1.0,3.0,91,0.00,,,-99.99,0.000000,,2013-08-11 12:33:00,
2013-08-11 04:43:00,48.0,45.0,-100.00,SSE,149,1.0,3.0,91,0.00,,,-99.99,0.000000,,2013-08-11 12:43:00,
2013-08-11 04:52:00,48.0,45.0,-100.00,SSE,149,1.0,3.0,91,0.00,,,-99.99,0.000000,,2013-08-11 12:52:00,
2013-08-11 04:54:00,47.0,46.0,-100.00,WNW,291,1.0,2.0,96,0.01,,,-99.99,0.000000,,2013-08-11 12:54:00,
2013-08-11 05:24:00,47.0,46.0,-100.00,WNW,291,1.0,2.0,96,0.01,,,-99.99,0.000000,,2013-08-11 13:24:00,
2013-08-11 05:44:00,47.0,46.0,-100.00,WNW,291,1.0,2.0,96,0.01,,,-99.99,0.000000,,2013-08-11 13:44:00,
2013-08-11 06:23:00,48.0,47.0,-100.00,NNW,339,2.0,3.0,97,0.00,,,0.01,0.000000,,2013-08-11 14:23:00,
2013-08-11 06:33:00,48.0,47.0,-100.00,NNW,339,2.0,3.0,97,0.00,,,0.01,0.000000,,2013-08-11 14:33:00,
2013-08-11 06:45:00,48.0,47.0,-100.00,NNW,339,2.0,3.0,97,0.00,,,0.01,0.000000,,2013-08-11 14:45:00,
2013-08-11 06:53:00,48.0,47.0,-100.00,NNW,339,2.0,3.0,97,0.00,,,0.01,0.000000,,2013-08-11 14:53:00,
2013-08-11 07:23:00,48.0,47.0,-100.00,NW,324,2.0,3.0,98,0.01,,,0.02,4.000000,,2013-08-11 15:23:00,
2013-08-11 07:34:00,48.0,47.0,-100.00,NW,324,2.0,3.0,98,0.01,,,0.02,4.000000,,2013-08-11 15:34:00,
2013-08-11 07:53:00,48.0,47.0,-100.00,NW,324,2.0,3.0,98,0.01,,,0.02,4.000000,,2013-08-11 15:53:00,
2013-08-11 08:34:00,49.0,48.0,-100.00,North,359,1.0,3.0,98,0.01,,,0.03,20.000000,,2013-08-11 16:34:00,
2013-08-11 08:44:00,49.0,48.0,-100.00,North,359,1.0,3.0,98,0.01,,,0.03,20.000000,,2013-08-11 16:44:00,
2013-08-11 08:53:00,49.0,48.0,-100.00,North,359,1.0,3.0,98,0.01,,,0.03,20.000000,,2013-08-11 16:53:00,
2013-08-11 09:24:00,48.0,47.0,-100.00,NNE,32,2.0,5.0,97,0.03,,,0.06,27.000000,,2013-08-11 17:24:00,
2013-08-11 09:32:00,48.0,47.0,-100.00,NNE,32,2.0,5.0,97,0.03,,,0.06,27.000000,,2013-08-11 17:32:00,
2013-08-11 09:44:00,48.0,47.0,-100.00,NNE,32,2.0,5.0,97,0.03,,,0.06,27.000000,,2013-08-11 17:44:00,
2013-08-11 09:53:00,48.0,47.0,-100.00,NNE,32,2.0,5.0,97,0.03,,,0.06,27.000000,,2013-08-11 17:53:00,
2013-08-11 10:17:00,49.0,48.0,-100.00,NE,36,1.0,4.0,98,0.05,,,0.11,43.000000,,2013-08-11 18:17:00,
2013-08-11 10:22:00,49.0,48.0,-100.00,NE,36,1.0,4.0,98,0.05,,,0.11,43.000000,,2013-08-11 18:22:00,
2013-08-11 10:37:00,49.0,48.0,-100.00,NE,36,1.0,4.0,98,0.05,,,0.11,43.000000,,2013-08-11 18:37:00,
2013-08-11 10:45:00,49.0,48.0,-100.00,NE,36,1.0,4.0,98,0.05,,,0.11,43.000000,,2013-08-11 18:45:00,
2013-08-11 10:53:00,49.0,48.0,-100.00,NE,36,1.0,4.0,98,0.05,,,0.11,43.000000,,2013-08-11 18:53:00,
2013-08-11 10:54:00,50.0,49.0,-100.00,East,88,1.0,4.0,97,0.06,,,0.17,106.000000,,2013-08-11 18:54:00,
2013-08-11 11:13:00,50.0,49.0,-100.00,East,88,1.0,4.0,97,0.06,,,0.17,106.000000,,2013-08-11 19:13:00,
2013-08-11 11:23:00,50.0,49.0,-100.00,East,88,1.0,4.0,97,0.06,,,0.17,106.000000,,2013-08-11 19:23:00,
2013-08-11 11:32:00,50.0,49.0,-100.00,East,88,1.0,4.0,97,0.06,,,0.17,106.000000,,2013-08-11 19:32:00,
2013-08-11 11:45:00,50.0,49.0,-100.00,East,88,1.0,4.0,97,0.06,,,0.17,106.000000,,2013-08-11 19:45:00,
2013-08-11 12:24:00,50.0,49.0,-100.00,East,98,0.0,6.0,97,0.04,,,0.21,124.000000,,2013-08-11 20:24:00,
2013-08-11 12:45:00,50.0,49.0,-100.00,East,98,0.0,6.0,97,0.04,,,0.21,124.000000,,2013-08-11 20:45:00,
2013-08-11 12:53:00,50.0,49.0,-100.00,East,98,0.0,6.0,97,0.04,,,0.21,124.000000,,2013-08-11 20:53:00,
2013-08-11 13:24:00,51.0,50.0,-100.00,SSE,154,2.0,4.0,96,0.03,,,0.24,171.000000,,2013-08-11 21:24:00,
2013-08-11 13:33:00,51.0,50.0,-100.00,SSE,154,2.0,4.0,96,0.03,,,0.24,171.000000,,2013-08-11 21:33:00,
2013-08-11 13:53:00,51.0,50.0,-100.00,SSE,154,2.0,4.0,96,0.03,,,0.24,171.000000,,2013-08-11 21:53:00,
2013-08-11 14:13:00,51.0,50.0,-100.00,SSE,156,2.0,4.0,96,0.03,,,0.27,123.000000,,2013-08-11 22:13:00,
2013-08-11 14:33:00,51.0,50.0,-100.00,SSE,156,2.0,4.0,96,0.03,,,0.27,123.000000,,2013-08-11 22:33:00,
2013-08-11 14:44:00,51.0,50.0,-100.00,SSE,156,2.0,4.0,96,0.03,,,0.27,123.000000,,2013-08-11 22:44:00,
2013-08-11 14:53:00,51.0,50.0,-100.00,SSE,156,2.0,4.0,96,0.03,,,0.27,123.000000,,2013-08-11 22:53:00,
2013-08-11 15:25:00,52.0,51.0,-100.00,SSW,208,0.0,4.0,96,0.04,,,0.31,121.000000,,2013-08-11 23:25:00,
2013-08-11 15:32:00,52.0,51.0,-100.00,SSW,208,0.0,4.0,96,0.04,,,0.31,121.000000,,2013-08-11 23:32:00,
2013-08-11 15:44:00,52.0,51.0,-100.00,SSW,208,0.0,4.0,96,0.04,,,0.31,121.000000,,2013-08-11 23:44:00,
2013-08-11 15:53:00,52.0,51.0,-100.00,SSW,208,0.0,4.0,96,0.04,,,0.31,121.000000,,2013-08-11 23:53:00,
2013-08-11 16:23:00,53.0,52.0,-100.00,South,176,1.0,3.0,97,0.05,,,0.36,107.000000,,2013-08-12 00:23:00,
2013-08-11 16:34:00,53.0,52.0,-100.00,South,176,1.0,3.0,97,0.05,,,0.36,107.000000,,2013-08-12 00:34:00,
2013-08-11 16:44:00,53.0,52.0,-100.00,South,176,1.0,3.0,97,0.05,,,0.36,107.000000,,2013-08-12 00:44:00,
2013-08-11 16:53:00,53.0,52.0,-100.00,South,176,1.0,3.0,97,0.05,,,0.36,107.000000,,2013-08-12 00:53:00,
2013-08-11 17:13:00,53.0,52.0,-100.00,East,92,1.0,3.0,96,0.05,,,0.41,113.000000,,2013-08-12 01:13:00,
2013-08-11 17:23:00,53.0,52.0,-100.00,East,92,1.0,3.0,96,0.05,,,0.41,113.000000,,2013-08-12 01:23:00,
2013-08-11 17:34:00,53.0,52.0,-100.00,East,92,1.0,3.0,96,0.05,,,0.41,113.000000,,2013-08-12 01:34:00,
2013-08-11 17:43:00,53.0,52.0,-100.00,East,92,1.0,3.0,96,0.05,,,0.41,113.000000,,2013-08-12 01:43:00,
2013-08-11 17:53:00,53.0,52.0,-100.00,East,92,1.0,3.0,96,0.05,,,0.41,113.000000,,2013-08-12 01:53:00,
2013-08-11 18:23:00,53.0,52.0,-100.00,ENE,73,1.0,3.0,98,0.08,,,0.49,62.000000,,2013-08-12 02:23:00,
2013-08-11 18:34:00,53.0,52.0,-100.00,ENE,73,1.0,3.0,98,0.08,,,0.49,62.000000,,2013-08-12 02:34:00,
2013-08-11 18:44:00,53.0,52.0,-100.00,ENE,73,1.0,3.0,98,0.08,,,0.49,62.000000,,2013-08-12 02:44:00,
2013-08-11 18:52:00,53.0,52.0,-100.00,ENE,73,1.0,3.0,98,0.08,,,0.49,62.000000,,2013-08-12 02:52:00,
2013-08-11 19:24:00,53.0,53.0,-100.00,NE,52,1.0,3.0,99,0.09,,,0.58,41.000000,,2013-08-12 03:24:00,
2013-08-11 19:35:00,53.0,53.0,-100.00,NE,52,1.0,3.0,99,0.09,,,0.58,41.000000,,2013-08-12 03:35:00,
2013-08-11 19:44:00,53.0,53.0,-100.00,NE,52,1.0,3.0,99,0.09,,,0.58,41.000000,,2013-08-12 03:44:00,
2013-08-11 19:53:00,53.0,53.0,-100.00,NE,52,1.0,3.0,99,0.09,,,0.58,41.000000,,2013-08-12 03:53:00,
2013-08-11 20:12:00,53.0,53.0,-100.00,NNE,28,3.0,5.0,99,0.10,,,0.68,38.000000,,2013-08-12 04:12:00,
2013-08-11 20:22:00,53.0,53.0,-100.00,NNE,28,3.0,5.0,99,0.10,,,0.68,38.000000,,2013-08-12 04:22:00,
2013-08-11 20:33:00,53.0,53.0,-100.00,NNE,28,3.0,5.0,99,0.10,,,0.68,38.000000,,2013-08-12 04:33:00,
2013-08-11 20:43:00,53.0,53.0,-100.00,NNE,28,3.0,5.0,99,0.10,,,0.68,38.000000,,2013-08-12 04:43:00,
2013-08-11 20:52:00,53.0,53.0,-100.00,NNE,28,3.0,5.0,99,0.10,,,0.68,38.000000,,2013-08-12 04:52:00,
2013-08-11 21:11:00,53.0,53.0,-100.00,NE,49,0.0,4.0,99,0.06,,,0.74,21.000000,,2013-08-12 05:11:00,
2013-08-11 21:22:00,53.0,53.0,-100.00,NE,49,0.0,4.0,99,0.06,,,0.74,21.000000,,2013-08-12 05:22:00,
2013-08-11 21:32:00,53.0,53.0,-100.00,NE,49,0.0,4.0,99,0.06,,,0.74,21.000000,,2013-08-12 05:32:00,
2013-08-11 21:43:00,53.0,53.0,-100.00,NE,49,0.0,4.0,99,0.06,,,0.74,21.000000,,2013-08-12 05:43:00,
2013-08-11 21:52:00,53.0,53.0,-100.00,NE,49,0.0,4.0,99,0.06,,,0.74,21.000000,,2013-08-12 05:52:00,
2013-08-11 22:22:00,52.0,52.0,-100.00,ENE,66,0.0,4.0,100,0.02,,,0.76,10.000000,,2013-08-12 06:22:00,
2013-08-11 22:32:00,52.0,52.0,-100.00,ENE,66,0.0,4.0,100,0.02,,,0.76,10.000000,,2013-08-12 06:32:00,
2013-08-11 22:42:00,52.0,52.0,-100.00,ENE,66,0.0,4.0,100,0.02,,,0.76,10.000000,,2013-08-12 06:42:00,
2013-08-11 22:52:00,52.0,52.0,-100.00,ENE,66,0.0,4.0,100,0.02,,,0.76,10.000000,,2013-08-12 06:52:00,
2013-08-11 23:12:00,51.0,51.0,-100.00,NW,309,0.0,3.0,100,0.04,,,0.80,1.000000,,2013-08-12 07:12:00,
2013-08-11 23:22:00,51.0,51.0,-100.00,NW,309,0.0,3.0,100,0.04,,,0.80,1.000000,,2013-08-12 07:22:00,
2013-08-11 23:33:00,51.0,51.0,-100.00,NW,309,0.0,3.0,100,0.04,,,0.80,1.000000,,2013-08-12 07:33:00,
2013-08-11 23:43:00,51.0,51.0,-100.00,NW,309,0.0,3.0,100,0.04,,,0.80,1.000000,,2013-08-12 07:43:00,
2013-08-11 23:52:00,51.0,51.0,-100.00,NW,309,0.0,3.0,100,0.04,,,0.80,1.000000,,2013-08-12 07:52:00,